Location: Czekanka
(50.4925°N, 19.2643°E)
Time: 02:29:55
(UTC+00:00)

CZ-2C R/B - Pass Details

Date: 27 September 2024
Orbit: 703 x 903 km, 98.2° (Epoch: 14 October)

Event Time Altitude Azimuth Distance (km) Brightness Sun altitude
Rises 00:41:53 0° 14° (NNE) 3,541 7.3 -34.3°
Reaches altitude 10° 00:44:20 10° 14° (NNE) 2,592 6.4 -34.0°
Enters shadow 00:48:35 51° 17° (NNE) 1,117 4.0 -33.6°
